CW9773 Weather Reports


time (UTC)temp
C
wind
direction
speed
KPH
gust
KPH
rain 1hr
cm
rain 24hr
cm
rain mn
cm
humidity
%
barometer
mb
20260508220052 16 162 0.0 0.0 0.00 0.00 0.00 63 1012.0
20260508214547 16 166 0.0 0.0 0.00 0.00 0.00 64 1012.0
20260508213047 16 267 0.0 0.0 0.00 0.00 0.00 62 1011.8
20260508211512 17 168 0.0 0.0 0.00 0.00 0.00 62 1011.8
20260508210046 17 168 0.0 0.0 0.00 0.00 0.00 60 1012.0
20260508204510 17 168 0.0 0.0 0.00 0.00 0.00 60 1012.0
20260508203041 18 168 0.0 0.0 0.00 0.00 0.00 59 1012.2
20260508201600 18 167 0.0 0.0 0.00 0.00 0.00 58 1012.4
20260508200039 18 167 0.0 0.0 0.00 0.00 0.00 55 1012.6
20260508194555 19 168 0.0 0.0 0.00 0.00 0.00 55 1013.0
20260508193017 20 168 0.0 0.0 0.00 0.00 0.00 52 1012.9
20260508191550 18 166 0.0 0.0 0.00 0.00 0.00 58 1013.4
20260508190037 19 203 0.0 0.0 0.00 0.00 0.00 52 1013.4
20260508184543 20 203 0.0 0.0 0.00 0.00 0.00 51 1013.5
20260508183028 20 180 0.0 0.0 0.00 0.00 0.00 54 1013.8
20260508181550 21 155 0.0 0.0 0.00 0.00 0.00 51 1013.7
20260508180022 21 207 0.0 0.0 0.00 0.00 0.00 50 1014.2
20260508174549 20 195 0.0 0.0 0.00 0.00 0.00 52 1014.2
20260508173000 20 196 0.0 0.0 0.00 0.00 0.00 49 1014.5
20260508171529 20 154 0.0 0.0 0.00 0.00 0.00 45 1014.7
20260508170048 20 179 0.0 0.0 0.00 0.00 0.00 50 1015.0
20260508164523 20 144 0.0 0.0 0.00 0.00 0.00 50 1015.1
20260508163041 20 135 0.0 0.0 0.00 0.00 0.00 49 1015.3
20260508161606 18 241 0.0 0.0 0.00 0.00 0.00 49 1015.5
20260508160025 17 233 0.0 0.0 0.00 0.00 0.00 51 1015.7
20260508154542 17 340 0.0 0.0 0.00 0.00 0.00 49 1016.0
20260508153100 16 257 0.0 0.0 0.00 0.00 0.00 54 1016.1
20260508151528 15 257 0.0 0.0 0.00 0.00 0.00 54 1016.2
20260508150046 13 195 0.0 0.0 0.00 0.00 0.00 55 1016.2
20260508144509 11 281 0.0 0.0 0.00 0.00 0.00 59 1016.4
20260508143032 10 281 0.0 0.0 0.00 0.00 0.00 61 1016.5
20260508141604 8 211 0.0 0.0 0.00 0.00 0.00 71 1016.5
20260508140021 7 190 0.0 0.0 0.00 0.00 0.00 79 1016.5
20260508134543 7 190 0.0 0.0 0.00 0.00 0.00 81 1016.4
20260508133100 6 190 0.0 0.0 0.00 0.00 0.00 83 1016.5
20260508131532 5 190 0.0 0.0 0.00 0.00 0.00 87 1016.4
20260508124518 5 190 0.0 0.0 0.00 0.00 0.00 88 1016.2
20260508123100 4 190 0.0 0.0 0.00 0.00 0.00 87 1016.1
20260508121512 4 190 0.0 0.0 0.00 0.00 0.00 87 1016.0
20260508120055 4 190 0.0 0.0 0.00 0.00 0.00 87 1015.8
20260508114603 3 190 0.0 0.0 0.00 0.13 0.00 87 1015.5
20260508113037 3 190 0.0 0.0 0.00 0.13 0.00 87 1015.2
20260508111558 4 190 0.0 0.0 0.00 0.13 0.00 86 1014.8
20260508110031 4 190 0.0 0.0 0.00 0.13 0.00 86 1014.6
20260508104547 4 190 0.0 0.0 0.00 0.23 0.00 86 1014.4
20260508103011 5 190 0.0 0.0 0.00 0.23 0.00 86 1014.1
20260508101544 5 190 0.0 0.0 0.00 0.23 0.00 86 1013.7
20260508100056 5 190 0.0 0.0 0.00 0.23 0.00 86 1013.5
20260508094515 5 190 0.0 0.0 0.00 0.23 0.00 87 1013.5
20260508093042 5 190 0.0 0.0 0.00 0.23 0.00 87 1013.3
20260508091510 5 190 0.0 0.0 0.00 0.23 0.00 87 1013.2
20260508090038 5 190 0.0 0.0 0.00 0.23 0.00 88 1013.2
20260508084501 5 190 0.0 0.0 0.00 0.23 0.00 88 1013.1
20260508083034 6 190 0.0 0.0 0.00 0.23 0.00 88 1012.9
20260508081550 6 190 0.0 0.0 0.00 0.23 0.00 88 1012.8
20260508080009 6 190 0.0 0.0 0.00 0.23 0.00 88 1012.8
20260508074547 6 190 0.0 0.0 0.00 0.23 0.00 88 1012.6
20260508073001 6 190 0.0 0.0 0.00 0.23 0.00 88 1012.6
20260508071535 6 190 0.0 0.0 0.00 0.23 0.00 88 1012.5
20260508070059 6 190 0.0 0.0 0.00 0.23 0.00 88 1012.5
20260508064539 6 190 0.0 0.0 0.00 0.23 0.00 88 1012.4
20260508063011 6 183 0.0 0.0 0.00 0.23 0.00 88 1012.2
20260508061532 6 240 0.0 0.0 0.00 0.23 0.00 88 1012.3
20260508060059 6 240 0.0 0.0 0.00 0.23 0.00 88 1012.2
20260508054533 6 240 0.0 0.0 0.00 0.23 0.00 88 1012.3
20260508053108 6 240 0.0 0.0 0.00 0.23 0.00 87 1012.3
20260508051540 6 240 0.0 0.0 0.00 0.23 0.00 87 1012.4
20260508050002 6 240 0.0 0.0 0.00 0.23 0.00 87 1012.4
20260508044537 6 240 0.0 0.0 0.00 0.25 0.00 87 1012.4
20260508043002 6 240 0.0 0.0 0.00 0.25 0.00 87 1012.2
20260508041530 7 240 0.0 0.0 0.00 0.25 0.00 87 1012.0
20260508040053 7 240 0.0 0.0 0.00 0.25 0.00 87 1012.2
20260508034523 7 240 0.0 0.0 0.00 0.28 0.25 87 1012.2
20260508033048 7 241 0.0 0.0 0.00 0.28 0.25 87 1012.2
20260508031517 7 241 0.0 0.0 0.00 0.28 0.25 87 1012.2
20260508030047 7 241 0.0 0.0 0.00 0.28 0.25 86 1012.2
20260508024504 7 241 0.0 0.0 0.00 0.36 0.25 86 1011.8
20260508023033 7 241 0.0 0.0 0.00 0.36 0.25 86 1011.5
20260508021518 7 241 0.0 0.0 0.00 0.36 0.25 86 1011.3
20260508020045 7 241 0.0 0.0 0.00 0.36 0.25 85 1011.1
20260508014503 7 241 0.0 0.0 0.00 0.43 0.25 85 1010.9
20260508013037 7 241 0.0 0.0 0.00 0.43 0.25 85 1010.6
20260508011600 8 241 0.0 0.0 0.00 0.43 0.25 84 1010.4
20260508010033 8 241 0.0 0.0 0.00 0.43 0.25 84 1010.1
20260508004556 8 241 0.0 0.0 0.00 0.46 0.25 83 1010.0
20260508003023 8 241 0.0 0.0 0.00 0.46 0.25 83 1009.8
20260508001608 9 241 0.0 0.0 0.00 0.46 0.25 83 1009.6
20260508000012 9 241 0.0 0.0 0.00 0.46 0.25 83 1009.6
20260507234536 10 241 0.0 0.0 0.00 0.56 0.25 83 1009.7
20260507233006 10 241 0.0 0.0 0.00 0.56 0.25 82 1009.5
20260507231538 10 241 0.0 0.0 0.00 0.56 0.25 83 1009.6
20260507230101 10 241 0.0 0.0 0.00 0.56 0.25 82 1009.4
20260507224541 10 261 0.0 0.0 0.00 0.58 0.25 82 1009.2
20260507223056 10 261 0.0 0.0 0.00 0.58 0.25 82 1009.1
20260507221522 10 327 0.0 0.0 0.00 0.58 0.25 82 1008.7